Weather History for KABY - November, 2011

Change the Weather History Date:

Saturday, November 26, 2011

  Actual Average Record
Temperature  
Mean Temperature 66 °F 56 °F  
Max Temperature 75 °F 68 °F 83 °F (2001)
Min Temperature 57 °F 43 °F 14 °F (1970)
Degree Days  
Heating Degree Days 0 10  
Month to date heating degree days 176  
Since 1 July heating degree days 226  
Cooling Degree Days 1 0  
Month to date cooling degree days 31  
Year to date cooling degree days 2534  
Growing Degree Days 16 (Base 50)    
Moisture  
Dew Point 54 °F    
Average Humidity 66    
Maximum Humidity 87    
Minimum Humidity 44    
Precipitation  
Precipitation 0.00 in - 1.45 in (2013)
Sea Level Pressure  
Sea Level Pressure 30.22 in    
Wind  
Wind Speed 7 mph (ESE)    
Max Wind Speed 13 mph    
Max Gust Speed 20 mph    
Visibility 10 miles    
Events      
T = Trace of Precipitation, MM = Missing Value Source: NWS Daily Summary

Daily Weather History Graph

Daily Weather History Graph

Search for Another Location

Airport or City:

Trip Planner

Search our weather history database for the weather conditions in past years. The results will help you decide how hot, cold, wet, or windy it might be!

Date:

Astronomy

Nov. 26, 2011 Rise Set
Actual Time 7:13 AM EST 5:33 PM EST
Civil Twilight 6:47 AM EST 6:00 PM EST
Nautical Twilight 6:17 AM EST 6:29 PM EST
Astronomical Twilight 5:48 AM EST 6:59 PM EST
Moon 8:40 AM EST (11/26) 7:07 PM EST (11/26)
Length of Visible Light 11h 12m
Length of Day
10h 19m
Waxing Crescent, 3% of the Moon is Illuminated
Nov 26
Waxing Crescent
Dec 2
First Quarter
Dec 10
Full
Dec 17
Last Quarter
Dec 24
New

Hourly Weather History & Observations

Time (EST) Temp. Dew Point Humidity Pressure Visibility Wind Dir Wind Speed Gust Speed Precip Events Conditions
12:53 AM 63.0 °F 55.0 °F 75% 30.26 in 10.0 mi ESE 6.9 mph - N/A   Overcast
1:53 AM 62.1 °F 55.0 °F 78% 30.25 in 10.0 mi ESE 6.9 mph - N/A   Overcast
2:53 AM 64.0 °F 55.0 °F 73% 30.26 in 10.0 mi ESE 5.8 mph - N/A   Overcast
3:53 AM 60.1 °F 55.0 °F 83% 30.25 in 10.0 mi East 5.8 mph - N/A   Overcast
4:53 AM 57.0 °F 53.1 °F 87% 30.25 in 10.0 mi East 3.5 mph - N/A   Scattered Clouds
5:53 AM 59.0 °F 55.0 °F 87% 30.25 in 10.0 mi East 4.6 mph - N/A   Overcast
6:53 AM 60.8 °F 55.4 °F 82% 30.26 in 10.0 mi East 4.6 mph - N/A   Overcast
7:53 AM 60.1 °F 55.0 °F 83% 30.28 in 10.0 mi East 4.6 mph - N/A   Overcast
8:53 AM 62.1 °F 55.9 °F 80% 30.29 in 10.0 mi East 4.6 mph - N/A   Overcast
9:53 AM 69.1 °F 57.0 °F 65% 30.29 in 10.0 mi ESE 6.9 mph - N/A   Overcast
10:53 AM 71.1 °F 55.9 °F 59% 30.28 in 10.0 mi SE 8.1 mph - N/A   Overcast
11:53 AM 73.0 °F 54.0 °F 51% 30.26 in 10.0 mi SSE 12.7 mph 19.6 mph N/A   Overcast
12:53 PM 75.0 °F 53.1 °F 46% 30.23 in 10.0 mi SE 11.5 mph - N/A   Overcast
1:53 PM 75.0 °F 53.1 °F 46% 30.20 in 10.0 mi South 12.7 mph - N/A   Overcast
2:53 PM 75.0 °F 53.1 °F 46% 30.18 in 10.0 mi South 10.4 mph - N/A   Overcast
3:53 PM 75.0 °F 52.0 °F 44% 30.17 in 10.0 mi SSE 5.8 mph - N/A   Overcast
4:53 PM 75.0 °F 52.0 °F 44% 30.17 in 10.0 mi SE 5.8 mph - N/A   Mostly Cloudy
5:53 PM 69.1 °F 52.0 °F 54% 30.15 in 10.0 mi Calm Calm - N/A   Partly Cloudy
6:53 PM 63.0 °F 53.1 °F 70% 30.16 in 10.0 mi ENE 3.5 mph - N/A   Clear
7:53 PM 64.4 °F 53.6 °F 68% 30.15 in 10.0 mi ESE 6.9 mph - N/A   Mostly Cloudy
8:53 PM 64.9 °F 54.0 °F 68% 30.16 in 10.0 mi SE 3.5 mph - N/A   Overcast
9:53 PM 64.9 °F 54.0 °F 68% 30.16 in 10.0 mi SSE 4.6 mph - N/A   Mostly Cloudy
10:53 PM 66.2 °F 55.4 °F 68% 30.16 in 10.0 mi SE 8.1 mph - N/A   Overcast
11:53 PM 66.9 °F 55.0 °F 66% 30.14 in 10.0 mi SE 11.5 mph 19.6 mph N/A   Mostly Cloudy